星链-35943(STARLINK-35943)

导读 | 豆包AI

STARLINK-35943是美国于**2025年12月7日**发射的星链卫星,隶属于SpaceX公司打造的星链星座。星链星座旨在为全球提供高速低延迟互联网覆盖,尤其聚焦偏远地区和网络基础设施薄弱区域,卫星进入轨道后,将持续扩展星链网络的全球服务能力,完善星座组网布局。

基本信息
目录编号:
66927
目录名称:
STARLINK-35943
国际标识:
2025-286C
轨道中心:
EARTH
卫星名称:
星链-35943
卫星全名:
星链-35943(STARLINK-35943)
卫星状态:
在轨 (已飞行118 天)
发射日期:
2025-12-07 UTC
国别 :
美国 (US)
星等 :
--
轨道信息
数据来源 国际轨道数据
星历时间: 2026-04-04T00:32:26+0800
12小时前
查看轨道信息
半长轴: 6853.468km
偏心率: 0.0001255
轨道倾角: 53.159°
近地点辐角 107.881°
升交点赤经 242.376°
平近点角 252.233°
近地点: 474.47km
远地点: 476.192km
周期: 94.108分钟
每日圈数: 15.301613
详细信息
固有亮度:
5
最大亮度:
2.5
卫星平台:
Starlink V1.0
覆盖范围:
全球
运营商:
太空探索技术公司
运营商所在国:
美国
制造商(研发单位):
太空探索技术公司
制造商所在国:
美国
使用方式:
暂无
卫星简介
Starlink 计划是 SpaceX 推出的全球卫星互联网项目,通过发射低轨道卫星,为全球尤其是偏远地区提供高速、低延迟的互联网服务。自 2019 年起,Starlink 已部署数千颗卫星,旨在缩小全球数字鸿沟,推动互联网普及。该项目还为军事、航空等行业提供通信支持,带来广泛经济效益。
2D轨道图
3D轨道图
轨道高度分析图
轨道倾角分析图
轨道综合分析图
查看轨道综合分析图